Wind_Speed
23 24 25 27 28 28 28 28 27 27 27 29 29 30 31 31 30 30 34 35 39 38 36 39 40 34 39 49 40 31 43 38 36 21 25 32 49 53 56 69 67 64 56
21 23 25 27 29 30 29 28 26 26 25 26 27 29 30 32 32 30 32 31 37 37 36 39 40 44 33 34 46 31 32 39 41 33 37 30 28 41 45 38 47 58 56
19 22 24 26 29 30 31 29 26 25 25 25 26 28 29 29 31 31 29 30 36 36 36 36 36 30 38 36 33 29 26 29 34 41 35 35 35 25 29 37 36 34 38
17 20 22 24 27 29 30 29 27 25 26 26 26 26 26 27 28 28 25 24 31 32 32 34 27 30 31 32 30 39 33 31 32 37 37 33 32 28 30 26 26 29 29
14 17 19 22 25 28 30 31 28 26 24 24 25 25 24 24 24 23 20 20 21 26 27 26 25 27 27 30 34 37 39 37 32 36 38 40 39 29 26 25 26 24 23
12 14 17 20 24 27 29 29 29 27 24 24 25 25 23 22 21 18 14 13 15 18 23 25 25 25 24 28 34 32 33 29 39 38 43 40 41 35 29 28 29 27 27
9 11 14 17 21 25 27 28 30 29 27 26 26 26 25 24 24 11 7 10 13 16 18 19 23 26 26 26 25 29 32 27 33 42 36 38 39 35 32 30 27 28 33
6 7 10 14 18 21 24 28 29 29 28 28 27 27 27 27 24 20 11 9 13 17 17 15 17 17 18 21 22 23 21 27 31 33 32 35 34 31 28 25 31 36 30
6 6 8 11 14 18 21 24 26 27 28 29 28 27 27 26 21 18 13 8 4 3 3 2 4 7 11 15 18 18 20 19 19 19 15 13 12 12 18 22 31 33 32
8 5 5 8 11 14 16 17 20 22 24 26 27 28 26 25 21 17 13 13 13 12 12 10 5 2 2 3 7 14 17 17 19 22 20 16 12 11 11 13 21 30 33
10 7 3 5 7 10 12 13 14 16 18 21 24 26 27 27 24 20 18 19 21 21 20 19 15 11 10 9 10 13 14 17 15 14 17 15 14 15 14 14 20 25 30
12 9 5 4 6 7 9 11 12 13 15 17 19 21 23 24 24 24 23 22 22 24 24 21 17 14 14 14 15 17 17 17 19 20 20 20 19 20 19 16 15 18 25
14 12 9 7 6 6 6 7 9 12 14 15 17 18 20 21 21 21 21 22 21 22 23 23 22 23 22 24 22 19 17 18 19 20 21 22 20 19 19 19 19 19 17
16 15 13 11 8 7 6 6 6 8 10 12 13 14 15 16 17 18 18 19 18 19 19 19 19 19 20 22 21 20 19 19 19 21 23 23 22 22 22 21 21 19 14
19 18 16 15 12 10 8 7 6 5 6 7 9 10 11 12 14 15 14 13 15 15 15 16 16 17 19 19 19 19 19 18 17 17 18 19 19 18 18 17 15 14 12
23 22 20 18 16 14 12 9 8 7 5 4 5 6 6 7 9 9 10 9 9 10 9 10 12 12 13 14 14 14 15 14 14 13 12 12 13 14 14 14 13 11 9
27 24 23 21 20 18 15 13 11 9 7 7 7 7 7 7 6 5 6 6 7 6 5 6 7 8 8 8 8 8 8 9 9 10 10 11 11 12 11 11 11 10 10
31 28 26 24 22 21 19 16 14 12 9 8 7 6 7 8 8 7 6 5 3 2 2 2 2 2 3 4 5 6 7 8 8 9 9 9 9 10 10 10 10 10 11
35 33 30 28 25 23 21 19 17 14 11 10 9 8 7 8 8 8 8 8 7 5 4 4 4 4 4 4 4 4 4 5 6 7 8 9 10 10 11 12 12 13 13
37 36 33 30 28 26 24 22 19 17 15 14 12 11 9 11 12 11 9 9 9 9 8 8 8 8 8 9 9 9 10 10 11 12 13 13 14 14 14 15 15 15 15
37 38 35 33 31 28 26 24 21 20 17 16 14 12 11 11 10 10 11 10 9 9 10 11 11 11 12 12 12 12 13 13 13 14 14 14 15 15 15 16 16 16 16
35 37 37 36 34 31 29 25 23 22 20 19 16 15 14 14 11 11 9 8 9 9 9 10 10 10 12 13 15 15 15 15 16 16 16 16 17 17 17 17 17 18 17
32 35 35 36 35 32 30 28 26 24 23 21 19 18 18 18 16 14 14 13 13 12 12 10 9 9 10 11 12 13 13 14 15 16 16 17 17 17 17 18 17 17 18
27 30 33 33 33 32 31 30 28 26 24 23 21 21 20 20 20 19 19 19 18 17 17 15 14 14 15 15 15 15 15 15 16 16 16 17 17 17 17 17 16 16 16
22 25 27 28 28 28 28 27 25 25 24 23 22 22 21 20 20 21 21 20 20 20 19 18 18 18 18 17 17 17 17 17 16 15 15 15 15 15 15 15 15 14 14
15 17 18 18 19 19 19 20 20 19 20 20 19 19 19 18 20 20 19 18 17 18 18 18 19 19 18 17 16 16 16 15 15 15 14 14 14 14 14 14 13 12 11
Wind_Direction
330 334 335 335 334 330 328 325 319 313 310 307 307 305 304 300 292 286 275 265 260 262 258 259 249 243 246 242 243 243 232 239 247 251 237 246 246 239 243 243 245 242 241
335 340 341 340 340 340 338 335 329 322 319 316 313 311 309 306 300 289 283 264 260 259 256 259 262 244 237 236 245 247 243 240 242 247 246 251 257 245 243 244 245 246 240
342 347 346 346 348 349 347 342 338 332 327 326 324 318 314 313 310 295 280 265 255 255 256 257 253 248 245 233 230 232 238 249 244 239 244 244 254 251 254 248 247 250 249
347 351 351 354 354 356 356 350 345 340 338 336 330 324 321 315 310 303 279 266 254 253 255 255 259 240 239 244 241 238 245 258 239 240 234 235 249 254 243 240 240 241 243
349 352 358 2 2 3 4 359 353 349 345 341 339 336 331 323 316 310 285 267 258 248 254 260 249 244 242 237 238 235 243 249 246 235 230 229 230 239 234 234 233 234 211
346 353 359 6 9 9 9 5 4 2 360 358 357 353 348 341 331 311 285 266 260 255 257 258 261 248 241 240 237 237 237 256 235 241 238 237 234 233 233 234 224 202 172
340 349 359 9 12 14 14 10 13 13 12 12 11 9 8 2 6 347 300 268 268 271 271 261 255 255 260 261 254 248 241 253 252 248 242 236 230 235 238 233 222 214 198
321 340 356 11 16 17 19 19 18 19 22 20 18 19 16 12 8 4 353 290 280 282 274 260 250 242 237 246 243 246 252 246 239 239 240 246 239 240 228 224 210 202 189
291 319 344 3 15 15 20 21 21 23 27 30 28 25 28 22 16 14 8 8 351 326 296 246 221 208 217 233 239 238 237 228 219 228 221 211 211 232 232 220 201 195 174
271 294 329 356 13 14 18 19 22 26 32 34 35 35 34 38 29 36 49 66 72 78 86 94 100 118 118 185 224 209 191 160 164 160 156 159 157 154 190 211 220 201 193
263 271 289 337 1 6 15 16 23 27 29 36 43 43 41 41 48 52 64 77 83 84 82 81 83 94 105 124 149 151 156 141 139 149 147 146 148 152 156 174 195 207 200
256 258 254 286 324 352 6 14 18 27 31 35 41 45 49 50 48 50 56 65 77 81 79 79 87 104 115 125 129 127 128 135 139 140 139 136 146 149 153 162 181 200 203
249 253 251 256 283 321 346 6 14 22 31 36 40 44 48 50 53 56 59 61 61 69 77 79 83 87 92 94 93 98 110 119 125 129 130 132 137 136 144 150 161 169 181
242 246 250 248 255 272 295 329 360 18 29 34 39 43 48 51 57 56 55 57 64 72 77 82 87 91 94 92 95 98 99 104 113 120 125 128 132 136 141 147 151 157 165
240 240 244 247 252 261 273 293 317 347 13 25 33 38 40 44 45 46 54 63 66 68 78 84 87 89 93 96 99 102 105 110 117 121 125 129 132 134 144 154 164 165 166
236 237 241 247 250 254 259 267 285 299 316 335 356 10 33 41 43 44 46 50 62 70 75 81 84 85 89 93 98 103 107 108 111 116 120 125 135 148 160 165 173 178 185
236 238 237 239 245 247 251 257 266 271 287 304 319 332 342 351 9 24 30 29 27 45 51 83 96 105 110 112 113 114 118 127 135 143 153 161 167 173 180 187 194 204 212
235 236 237 240 241 245 248 249 252 259 267 275 282 290 298 306 316 323 328 333 347 345 350 5 32 89 119 137 148 154 161 168 176 182 187 192 197 203 209 216 224 231 236
234 233 234 237 239 242 245 249 252 256 261 267 275 282 288 291 289 281 282 282 283 279 277 272 261 260 267 261 247 237 233 230 229 231 233 235 235 235 236 238 239 241 246
236 235 234 236 238 241 244 247 250 253 255 260 268 278 293 309 310 303 290 278 269 267 265 260 253 248 248 251 252 251 247 241 239 238 239 240 241 243 243 244 247 247 248
235 235 234 235 236 238 242 246 250 251 254 258 262 267 276 293 314 322 323 316 304 292 283 277 274 269 261 255 250 249 251 250 249 248 247 248 250 252 253 254 255 258 261
237 236 235 235 237 238 241 243 245 249 252 256 261 264 265 273 281 290 292 298 305 309 308 301 291 283 277 272 269 265 262 261 263 261 262 261 261 261 261 261 262 263 261
236 235 235 235 238 241 243 245 246 248 252 255 257 260 264 270 274 277 282 283 283 290 297 304 306 301 294 287 283 278 275 271 264 264 263 264 263 264 265 266 264 263 264
238 236 237 236 237 240 242 245 249 252 254 257 258 258 260 263 269 275 273 270 275 279 284 290 298 303 302 296 290 284 279 275 273 270 266 265 266 264 262 261 263 264 263
232 234 237 238 240 243 246 248 251 254 256 257 258 259 261 261 260 262 272 270 267 268 268 275 285 293 293 289 286 283 280 279 277 274 270 267 266 266 267 267 267 266 264
232 234 236 238 241 244 246 249 253 255 256 258 256 254 257 260 264 265 265 263 261 262 268 277 284 287 286 286 285 282 282 281 277 274 271 270 268 267 268 267 266 265 264
Height
1414 1409 1404 1398 1393 1386 1380 1374 1368 1363 1359 1354 1350 1347 1343 1340 1337 1335 1333 1332 1333 1335 1337 1337 1338 1340 1342 1345 1347 1348 1352 1356 1356 1356 1360 1366 1372 1374 1377 1380 1383 1387 1392
1411 1406 1401 1396 1390 1382 1375 1368 1363 1357 1353 1349 1344 1339 1335 1331 1327 1324 1322 1322 1323 1325 1327 1329 1328 1330 1332 1336 1338 1340 1344 1348 1354 1352 1359 1361 1363 1366 1370 1371 1374 1379 1382
1407 1403 1399 1393 1387 1379 1371 1364 1358 1352 1348 1343 1338 1333 1328 1323 1318 1315 1313 1313 1314 1317 1319 1320 1320 1322 1324 1328 1332 1334 1336 1341 1344 1348 1350 1354 1359 1359 1363 1365 1368 1370 1373
1405 1401 1397 1392 1385 1378 1369 1362 1356 1350 1343 1338 1333 1328 1322 1317 1313 1308 1305 1305 1306 1309 1311 1312 1313 1315 1318 1321 1325 1328 1331 1333 1337 1341 1344 1349 1353 1355 1357 1359 1362 1365 1367
1403 1400 1395 1390 1384 1377 1368 1361 1355 1348 1342 1336 1329 1323 1317 1312 1307 1302 1299 1299 1300 1302 1304 1305 1306 1309 1312 1316 1319 1322 1327 1329 1329 1333 1336 1339 1343 1345 1351 1354 1357 1359 1364
1402 1398 1394 1389 1383 1376 1369 1362 1355 1347 1340 1334 1327 1321 1314 1308 1303 1298 1295 1295 1296 1298 1299 1300 1302 1304 1306 1309 1313 1317 1321 1322 1323 1326 1330 1333 1336 1337 1344 1349 1355 1355 1360
1399 1396 1393 1388 1383 1377 1371 1364 1356 1348 1341 1334 1328 1321 1315 1308 1302 1298 1295 1294 1295 1295 1295 1295 1297 1299 1301 1304 1308 1311 1313 1314 1318 1321 1323 1327 1332 1335 1338 1344 1346 1349 1356
1397 1395 1391 1388 1383 1378 1372 1365 1359 1351 1344 1336 1330 1324 1317 1311 1305 1300 1296 1294 1293 1292 1291 1291 1293 1294 1297 1300 1303 1306 1307 1310 1313 1316 1320 1323 1326 1330 1334 1338 1340 1349 1354
1394 1392 1390 1387 1382 1378 1372 1367 1362 1356 1349 1341 1335 1329 1321 1315 1309 1305 1301 1297 1294 1292 1291 1290 1291 1292 1294 1297 1299 1302 1304 1307 1309 1313 1316 1320 1324 1328 1332 1335 1342 1346 1354
1391 1390 1388 1385 1382 1378 1374 1370 1366 1360 1354 1349 1342 1335 1329 1321 1316 1311 1307 1304 1301 1298 1296 1295 1295 1295 1296 1297 1300 1301 1302 1305 1309 1311 1314 1319 1323 1328 1333 1340 1345 1347 1354
1388 1388 1386 1383 1381 1378 1375 1371 1368 1364 1359 1354 1347 1342 1337 1331 1325 1321 1317 1312 1308 1305 1302 1300 1300 1301 1301 1301 1303 1305 1307 1310 1312 1313 1317 1320 1326 1329 1335 1341 1347 1354 1360
1385 1384 1383 1382 1380 1378 1375 1372 1369 1366 1362 1357 1353 1348 1343 1338 1335 1331 1327 1323 1318 1314 1311 1310 1308 1307 1306 1307 1308 1308 1310 1312 1314 1317 1320 1323 1328 1333 1336 1342 1349 1357 1365
1380 1380 1380 1380 1378 1377 1375 1372 1370 1367 1364 1360 1357 1353 1349 1345 1342 1338 1334 1331 1329 1325 1322 1321 1320 1319 1317 1316 1316 1317 1318 1319 1320 1322 1324 1327 1333 1335 1340 1345 1353 1359 1366
1375 1376 1377 1376 1376 1375 1373 1371 1369 1367 1365 1362 1359 1356 1353 1350 1346 1344 1342 1339 1336 1333 1331 1330 1329 1327 1326 1325 1325 1326 1326 1327 1329 1331 1333 1336 1339 1342 1346 1353 1358 1363 1366
1370 1372 1373 1373 1373 1373 1371 1370 1369 1367 1365 1363 1361 1358 1356 1354 1351 1349 1347 1345 1342 1340 1339 1337 1336 1335 1334 1333 1333 1333 1334 1336 1338 1340 1342 1344 1345 1348 1353 1359 1363 1364 1366
1363 1365 1368 1368 1368 1369 1368 1368 1368 1367 1365 1364 1361 1360 1358 1356 1354 1352 1350 1349 1347 1345 1344 1342 1341 1341 1340 1340 1340 1340 1341 1342 1343 1345 1347 1348 1351 1355 1359 1361 1363 1365 1367
1356 1359 1361 1362 1364 1364 1364 1364 1364 1363 1362 1362 1360 1359 1358 1356 1355 1353 1352 1350 1349 1347 1347 1345 1345 1344 1344 1344 1345 1345 1346 1346 1348 1349 1352 1354 1357 1359 1361 1363 1365 1366 1366
1350 1352 1354 1357 1358 1359 1360 1360 1360 1360 1360 1360 1360 1359 1357 1356 1354 1354 1353 1351 1351 1350 1349 1348 1347 1347 1347 1348 1348 1349 1350 1351 1352 1354 1355 1356 1357 1359 1360 1361 1362 1363 1364
1341 1344 1348 1350 1352 1354 1355 1356 1357 1357 1357 1356 1357 1357 1356 1356 1355 1353 1352 1351 1350 1349 1348 1348 1348 1349 1349 1349 1350 1351 1351 1352 1353 1354 1355 1356 1357 1358 1359 1359 1360 1361 1362
1332 1336 1340 1343 1346 1348 1350 1351 1352 1353 1354 1354 1353 1353 1353 1353 1352 1351 1350 1349 1349 1349 1349 1349 1348 1348 1348 1349 1350 1350 1351 1351 1352 1352 1353 1353 1354 1355 1356 1357 1357 1358 1358
1322 1328 1332 1336 1338 1341 1344 1346 1348 1348 1349 1350 1351 1351 1351 1350 1349 1349 1348 1347 1345 1344 1344 1345 1346 1346 1346 1345 1345 1346 1347 1348 1349 1349 1350 1350 1351 1352 1352 1353 1353 1353 1353
1315 1319 1324 1328 1331 1334 1337 1340 1341 1343 1345 1345 1346 1347 1346 1347 1346 1347 1346 1345 1345 1344 1343 1342 1341 1341 1341 1342 1342 1341 1340 1341 1342 1344 1345 1345 1346 1346 1347 1346 1346 1347 1347
1307 1310 1315 1320 1324 1328 1332 1334 1336 1337 1339 1341 1341 1342 1342 1343 1342 1342 1344 1343 1341 1341 1341 1339 1338 1338 1338 1337 1338 1338 1337 1338 1338 1338 1339 1339 1339 1339 1340 1340 1340 1340 1340
1302 1305 1309 1312 1316 1320 1324 1327 1330 1332 1333 1336 1336 1337 1337 1337 1338 1339 1338 1338 1338 1337 1337 1337 1336 1334 1334 1333 1333 1333 1332 1331 1332 1332 1332 1331 1332 1332 1333 1333 1333 1334 1334
1297 1301 1304 1308 1311 1315 1319 1322 1325 1327 1328 1330 1331 1331 1332 1332 1332 1331 1334 1333 1333 1333 1332 1332 1332 1331 1330 1328 1327 1327 1326 1325 1325 1325 1325 1325 1326 1326 1326 1327 1327 1327 1328
1295 1298 1302 1305 1308 1311 1315 1318 1320 1321 1323 1325 1324 1324 1325 1326 1327 1327 1327 1327 1327 1327 1327 1327 1326 1325 1325 1324 1323 1322 1321 1321 1320 1320 1320 1320 1321 1321 1321 1322 1323 1323 1325